Back to catalog

CORVUS BC2

AliveScienceSSO
NORAD 42846·PAYLOAD·🇺🇸 United States

Launched Jul 14, 2017 from Baikonur Cosmodrome

Loading…

Next Passes (next 24 hours)

TLE

FreshSource: Space-Track

Epoch: Sep 14, 2026, 06:19 UTC

1 42846U 17042X   26257.26322477  .00003310  00000-0  22617-3 0  9991
2 42846  97.4174  55.2390 0013250 161.5997 198.5713 15.06757962500479

Track CORVUS BC2 in real time with AllMySat

Download on the App Store